{"data":{"norad_id":61680,"intl_designator":"2024-193V","name":"STARLINK-32412","alt_names":[],"object_type":"PAYLOAD","status":"ACTIVE","operator":null,"country":"US","launch_date":"2024-10-26","launch_site_code":"AFETR","launch_vehicle":null,"mission":null,"orbit_class":"UNKNOWN","rcs_meters":null,"size_class":null,"mass_kg":null,"dimensions":null,"purposes":["comms"],"wikipedia_slug":null,"has_3d_model":false,"image_url":null,"decayed_at":null,"tle_current":{"epoch":"2026-09-21T16:42:08.867808Z","epoch_age_seconds":85182,"freshness":"FRESH","line1":"1 61680U 24193V   26264.69593597  .00000535  00000+0  29004-4 0  9994","line2":"2 61680  53.1605 259.3276 0001386  96.0867 264.0293 15.31702401106558","mean_motion":15.31702401,"eccentricity":0.0001386,"inclination_deg":53.1605,"raan_deg":259.3276,"arg_perigee_deg":96.0867,"mean_anomaly_deg":264.0293,"bstar":2.9004e-5,"rev_number":10655,"period_min":94.01304059195,"perigee_km":469.78358461939,"apogee_km":471.68209133848,"semimajor_km":6848.8698379789,"source":"CELESTRAK","updated_at":"2026-09-22T09:00:49.403864Z"}}}